Location: �terpigny
(49.8910°N, 2.9249°E)
Time: 04:43:26
(UTC+00:00)

Cosmos 614 Rocket - Pass Details

Date: 07 June 2022
Orbit: 732 x 764 km, 74.1° (Epoch: 06 July)

Event Time Altitude Azimuth Distance (km) Brightness Sun altitude
Rises 23:20:12 0° 336° (NNW) 3,229 8.7 -17.0°
Reaches altitude 10° 23:22:35 10° 337° (NNW) 2,303 7.6 -17.1°
Maximum altitude 23:27:49 83° 66° (ENE) 775 4.0 -17.2°
Enters shadow 23:30:43 27° 153° (SSE) 1,424 4.9 -17.2°
